カタログに戻る

DELTA 1 DEB

運用中PO
NORAD 21601·DEBRIS·🇺🇸 United States

打ち上げ Jun 12, 1975 から Vandenberg Space Force Base

Loading…

次のパス (今後24時間)

TLE

最新Source: Space-Track

元期: Sep 14, 2026, 06:46 UTC

1 21601U 75052HV  26257.28229034 -.00000351  00000-0 -12023-2 0  9992
2 21601  99.8203 193.7157 0542643 272.5872 252.3948 12.50353802607514

AllMySatでDELTA 1 DEBをリアルタイム追跡

Download on the App Store